Date String (YYYY-MM-DD hh:mm:ss) UTC,Instrument flags,absolute air pressure of the measurement (hPa),sample flow rate (lpm),inlet stack bypass flow (lpm),air temperature of the measurement (°C),ambient temperature measured by the external sensor (°C),aerosol sample conditioner tube jacket temperature (°C),OPC LED temperature (°C),internal box temperature (°C),relative humidity of the measurement (%),span deviation,mass concentration of particles derived from Lorenz-Mie calculation of OPC scattering (μg/m³),mass concentration of particles derived from Lorenz-Mie calculation of OPC scattering (μg/m³),mass concentration of particles derived from Lorenz-Mie calculation of OPC scattering (μg/m³)
DateTimeUTC,F1_M11,P_M11,Q1_M11,Q2_M11,T1_M11,T2_M11,T3_M11,T4_M11,T5_M11,U1_M11,ZSPAN_M11,X0_M11,X2_M11,X1_M11
2023-06-19 06:00:00,SystemResetWarning,0824.5,5.00,000.00,029.8,028.4,000.0,038.3,031.4,18.9,0000.0,0009.46,0004.11,0003.65
2023-06-19 06:01:00,SystemResetWarning,0824.6,5.00,000.00,029.8,028.4,000.0,038.3,031.4,18.8,0000.0,0009.30,0004.03,0003.62
2023-06-19 06:02:00,SystemResetWarning,0824.6,5.00,000.00,029.9,028.5,000.0,038.3,031.4,18.5,0000.0,0009.52,0003.99,0003.57
2023-06-19 06:03:00,SystemResetWarning,0824.5,5.01,000.00,029.9,028.5,000.0,038.3,031.5,18.4,0000.0,0009.88,0003.94,0003.55
2023-06-19 06:04:00,SystemResetWarning,0824.5,5.01,000.00,029.9,028.6,000.0,038.4,031.5,18.5,0000.0,0009.77,0003.93,0003.52
2023-06-19 06:05:00,SystemResetWarning,0824.5,5.00,000.00,029.9,028.6,000.0,038.4,031.5,18.6,0000.0,0009.66,0003.92,0003.50
2023-06-19 06:06:00,SystemResetWarning,0824.5,4.99,000.00,030.0,028.3,000.0,038.4,031.6,18.6,0000.0,0009.25,0003.91,0003.49
2023-06-19 06:07:00,SystemResetWarning,0824.5,4.99,000.00,030.0,026.1,000.0,038.3,031.5,18.7,0000.0,0009.13,0003.87,0003.48
2023-06-19 06:08:00,SystemResetWarning,0824.5,5.00,000.00,029.9,024.8,000.0,038.3,031.4,18.8,0000.0,0009.04,0003.82,0003.47
2023-06-19 06:09:00,SystemResetWarning,0824.4,5.01,000.00,029.8,024.9,000.0,038.2,031.1,18.9,0000.0,0008.50,0003.81,0003.45
2023-06-19 06:10:00,SystemResetWarning,0824.4,5.00,000.00,029.7,025.3,000.0,038.3,031.0,18.9,0000.0,0009.07,0003.82,0003.45
2023-06-19 06:11:00,SystemResetWarning,0824.4,5.01,000.00,029.7,025.8,000.0,038.3,031.0,18.8,0000.0,0009.35,0003.83,0003.45
2023-06-19 06:12:00,SystemResetWarning,0824.4,5.00,000.00,029.6,026.2,000.0,038.2,031.0,18.8,0000.0,0009.51,0003.85,0003.45
2023-06-19 06:13:00,SystemResetWarning,0824.4,5.00,000.00,029.6,026.6,000.0,038.2,030.9,18.9,0000.0,0009.41,0003.87,0003.44
2023-06-19 06:14:00,SystemResetWarning,0824.4,5.01,000.00,029.6,026.9,000.0,038.2,031.0,18.7,0000.0,0008.81,0003.89,0003.45
2023-06-19 06:15:00,SystemResetWarning,0824.4,4.99,000.00,029.6,027.2,000.0,038.2,031.0,18.6,0000.0,0008.80,0003.89,0003.45
2023-06-19 06:16:00,SystemResetWarning,0824.4,4.99,000.00,029.6,027.4,000.0,038.2,031.0,18.6,0000.0,0008.54,0003.87,0003.45
2023-06-19 06:17:00,SystemResetWarning,0824.4,5.01,000.00,029.6,027.5,000.0,038.2,031.1,18.5,0000.0,0008.56,0003.85,0003.43
2023-06-19 06:18:00,SystemResetWarning,0824.4,5.01,000.00,029.6,027.7,000.0,038.2,031.1,18.4,0000.0,0008.57,0003.84,0003.43
2023-06-19 06:19:00,SystemResetWarning,0824.4,5.00,000.00,029.7,027.8,000.0,038.2,031.1,18.3,0000.0,0008.56,0003.84,0003.42
2023-06-19 06:20:00,SystemResetWarning,0824.3,5.00,000.00,029.7,027.9,000.0,038.2,031.2,18.1,0000.0,0008.60,0003.86,0003.42
2023-06-19 06:21:00,SystemResetWarning,0824.3,5.00,000.00,029.7,028.0,000.0,038.2,031.2,18.0,0000.0,0008.13,0003.85,0003.41
2023-06-19 06:22:00,SystemResetWarning,0824.4,5.00,000.00,029.7,028.1,000.0,038.2,031.2,17.8,0000.0,0007.12,0003.80,0003.39
2023-06-19 06:23:00,SystemResetWarning,0824.4,5.00,000.00,029.7,028.1,000.0,038.2,031.2,17.6,0000.0,0006.25,0003.79,0003.37
2023-06-19 06:24:00,SystemResetWarning,0824.4,5.00,000.00,029.7,028.2,000.0,038.3,031.2,17.7,0000.0,0006.10,0003.76,0003.36
2023-06-19 06:25:00,SystemResetWarning,0824.4,5.00,000.00,029.8,028.2,000.0,038.3,031.3,17.7,0000.0,0005.82,0003.72,0003.35
2023-06-19 06:26:00,SystemResetWarning,0824.3,5.00,000.00,029.8,028.2,000.0,038.3,031.3,17.6,0000.0,0006.54,0003.69,0003.35
2023-06-19 06:27:00,SystemResetWarning,0824.4,5.00,000.00,029.8,028.3,000.0,038.3,031.4,17.8,0000.0,0007.13,0003.71,0003.35
2023-06-19 06:28:00,SystemResetWarning,0824.5,5.00,000.00,029.8,028.3,000.0,038.3,031.4,17.8,0000.0,0007.10,0003.70,0003.35
2023-06-19 06:29:00,SystemResetWarning,0824.6,5.00,000.00,029.9,028.4,000.0,038.3,031.4,17.8,0000.0,0007.07,0003.68,0003.34
2023-06-19 06:30:00,SystemResetWarning,0824.7,5.00,000.00,029.9,028.4,000.0,038.3,031.4,18.8,0000.0,0007.21,0003.68,0003.32
2023-06-19 06:31:00,SystemResetWarning,0824.6,5.00,000.00,029.9,028.5,000.0,038.4,031.5,18.8,0000.0,0007.77,0003.67,0003.31
2023-06-19 06:32:00,SystemResetWarning,0824.5,5.00,000.00,029.9,028.5,000.0,038.4,031.5,19.0,0000.0,0008.04,0003.66,0003.30
2023-06-19 06:33:00,SystemResetWarning,0824.5,5.00,000.00,030.0,028.5,000.0,038.4,031.5,18.8,0000.0,0008.85,0003.70,0003.32
2023-06-19 06:34:00,SystemResetWarning,0824.6,5.00,000.00,030.0,028.6,000.0,038.4,031.5,19.4,0000.0,0009.09,0003.67,0003.32
2023-06-19 06:35:00,SystemResetWarning,0824.7,5.00,000.00,030.0,028.6,000.0,038.5,031.6,19.2,0000.0,0009.41,0003.71,0003.33
2023-06-19 06:36:00,SystemResetWarning,0824.7,4.99,000.00,030.0,028.1,000.0,038.5,031.6,19.3,0000.0,0009.69,0003.75,0003.35
2023-06-19 06:37:00,SystemResetWarning,0824.7,4.99,000.00,030.0,025.7,000.0,038.4,031.5,19.3,0000.0,0009.47,0003.80,0003.36
2023-06-19 06:38:00,SystemResetWarning,0824.7,5.01,000.00,030.0,024.8,000.0,038.3,031.4,20.8,0000.0,0009.33,0003.83,0003.38
2023-06-19 06:39:00,SystemResetWarning,0824.6,5.00,000.00,029.9,024.9,000.0,038.3,031.2,21.3,0000.0,0009.57,0003.87,0003.40
2023-06-19 06:40:00,SystemResetWarning,0824.5,5.00,000.00,029.8,025.4,000.0,038.3,031.0,20.7,0000.0,0009.88,0003.94,0003.44
2023-06-19 06:41:00,SystemResetWarning,0824.5,5.00,000.00,029.7,025.8,000.0,038.3,031.0,20.8,0000.0,0010.10,0003.98,0003.48
2023-06-19 06:42:00,SystemResetWarning,0824.6,5.00,000.00,029.7,026.3,000.0,038.3,031.0,20.9,0000.0,0009.95,0004.02,0003.52
2023-06-19 06:43:00,SystemResetWarning,0824.6,5.00,000.00,029.7,026.6,000.0,038.3,031.1,21.0,0000.0,0009.92,0004.03,0003.55
2023-06-19 06:44:00,SystemResetWarning,0824.5,4.99,000.00,029.7,027.0,000.0,038.3,031.1,20.8,0000.0,0009.35,0004.06,0003.59
2023-06-19 06:45:00,SystemResetWarning,0824.6,4.99,000.00,029.7,027.2,000.0,038.3,031.1,20.4,0000.0,0008.95,0004.09,0003.61
2023-06-19 06:46:00,SystemResetWarning,0824.5,4.99,000.00,029.7,027.5,000.0,038.3,031.2,20.4,0000.0,0008.67,0004.10,0003.64
2023-06-19 06:47:00,SystemResetWarning,0824.5,5.01,000.00,029.7,027.6,000.0,038.3,031.2,20.2,0000.0,0008.51,0004.13,0003.67
2023-06-19 06:48:00,SystemResetWarning,0824.5,5.02,000.00,029.7,027.8,000.0,038.3,031.2,19.8,0000.0,0008.48,0004.15,0003.69
2023-06-19 06:49:00,SystemResetWarning,0824.6,4.98,000.00,029.7,027.9,000.0,038.3,031.3,19.4,0000.0,0008.18,0004.13,0003.70
2023-06-19 06:50:00,SystemResetWarning,0824.5,5.00,000.00,029.7,028.0,000.0,038.3,031.3,19.5,0000.0,0007.91,0004.12,0003.71
2023-06-19 06:51:00,SystemResetWarning,0824.5,5.02,000.00,029.8,028.0,000.0,038.3,031.3,19.3,0000.0,0007.66,0004.10,0003.69
2023-06-19 06:52:00,SystemResetWarning,0824.5,4.99,000.00,029.8,028.1,000.0,038.3,031.3,18.9,0000.0,0007.41,0004.09,0003.69
2023-06-19 06:53:00,SystemResetWarning,0824.5,4.99,000.00,029.8,028.2,000.0,038.3,031.4,18.7,0000.0,0007.18,0004.09,0003.68
2023-06-19 06:54:00,SystemResetWarning,0824.5,5.01,000.00,029.8,028.2,000.0,038.3,031.4,18.9,0000.0,0006.44,0004.08,0003.67
2023-06-19 06:55:00,SystemResetWarning,0824.4,5.01,000.00,029.8,028.3,000.0,038.3,031.4,19.1,0000.0,0006.39,0004.05,0003.64
2023-06-19 06:56:00,SystemResetWarning,0824.4,5.00,000.00,029.8,028.3,000.0,038.3,031.4,18.7,0000.0,0006.30,0004.02,0003.62
2023-06-19 06:57:00,SystemResetWarning,0824.4,5.00,000.00,029.9,028.3,000.0,038.4,031.4,18.8,0000.0,0006.27,0004.00,0003.60
2023-06-19 06:58:00,SystemResetWarning,0824.4,5.00,000.00,029.9,028.3,000.0,038.4,031.4,18.9,0000.0,0006.23,0003.97,0003.59
2023-06-19 06:59:00,SystemResetWarning,0824.4,5.00,000.00,029.9,028.4,000.0,038.4,031.4,19.2,0000.0,0006.33,0003.94,0003.57
